sat.trackr.live / text

‹ back to catalog

STARLINK-33661

NORAD 63646 · 2025-083N

PAYLOAD ACTIVE UNKNOWN

§ Identity

Operator
Country
US
Launch date
2025-04-25
Launch site
AFETR
Launch vehicle
Mass (kg)
RCS (m²)

Purposes: comms

External: N2YO · Heavens-Above · Gunter

§ Orbital elements

Epoch: 2026-05-25T02:19:35.812128Z

Period
94.27 min
Inclination
42.9979°
Eccentricity
0.0001120
Mean motion
15.27584325 rev/d
Perigee alt
482.3 km
Apogee alt
483.8 km
Semi-major
6,861.2 km
B*
5.8454e-4
RAAN
293.5847°
Arg perigee
280.8726°
Mean anomaly
79.2000°
Rev number
6,178

§ Raw data

STARLINK-336611 63646U 25083N   26145.09694227  .00015860  00000+0  58454-3 0  99982 63646  42.9979 293.5847 0001120 280.8726  79.2000 15.27584325 61784

JSON: /api/v1/satellites/63646 · /tle

For live sub-satellite position, see the globe view (requires WebGL).

§ Visibility from observer

Set your observer location to see the next 7 days of passes ≥ 10°. The values pass through the URL so the page stays shareable.

No JS? Fill the form by hand. The geolocation button needs JavaScript.